TimeEST,TemperatureF,Dew PointF,Humidity,Sea Level PressureIn,VisibilityMPH,Wind Direction,Wind SpeedMPH,Gust SpeedMPH,PrecipitationIn,Events,Conditions,WindDirDegrees,DateUTC
12:15 AM,41.4,31.6,68,30.21,10.0,Calm,Calm,-,N/A,,Clear,0,2012-12-12 05:15:00
12:35 AM,40.3,31.8,72,30.21,10.0,WNW,4.6,-,N/A,,Clear,300,2012-12-12 05:35:00
12:55 AM,40.1,30.9,70,30.21,10.0,WNW,3.5,-,N/A,,Clear,300,2012-12-12 05:55:00
1:15 AM,39.6,30.2,69,30.22,10.0,NW,3.5,-,N/A,,Clear,310,2012-12-12 06:15:00
1:35 AM,39.2,29.5,68,30.23,10.0,Calm,Calm,-,N/A,,Clear,0,2012-12-12 06:35:00
1:55 AM,39.6,30.2,69,30.24,10.0,Calm,Calm,-,N/A,,Clear,0,2012-12-12 06:55:00
2:15 AM,39.0,30.2,71,30.25,10.0,Calm,Calm,-,N/A,,Clear,0,2012-12-12 07:15:00
2:55 AM,39.4,29.3,67,30.26,10.0,North,4.6,-,N/A,,Clear,360,2012-12-12 07:55:00
3:15 AM,39.2,29.1,67,30.27,10.0,North,4.6,-,N/A,,Clear,350,2012-12-12 08:15:00
3:35 AM,38.8,28.9,68,30.27,10.0,NNW,3.5,-,N/A,,Clear,330,2012-12-12 08:35:00
3:55 AM,38.3,28.9,69,30.29,10.0,Calm,Calm,-,N/A,,Clear,0,2012-12-12 08:55:00
4:15 AM,37.6,29.1,72,30.30,10.0,Calm,Calm,-,N/A,,Clear,0,2012-12-12 09:15:00
4:55 AM,37.9,29.5,72,30.31,10.0,Calm,Calm,-,N/A,,Clear,0,2012-12-12 09:55:00
5:15 AM,37.4,30.0,75,30.31,10.0,Calm,Calm,-,N/A,,Clear,0,2012-12-12 10:15:00
5:35 AM,36.9,30.7,79,30.32,10.0,WNW,3.5,-,N/A,,Clear,290,2012-12-12 10:35:00
5:55 AM,36.5,30.6,79,30.33,10.0,Calm,Calm,-,N/A,,Clear,0,2012-12-12 10:55:00
6:15 AM,36.3,30.7,80,30.34,10.0,Calm,Calm,-,N/A,,Clear,0,2012-12-12 11:15:00
6:55 AM,36.0,30.2,80,30.35,10.0,Calm,Calm,-,N/A,,Clear,0,2012-12-12 11:55:00
7:15 AM,36.1,30.7,81,30.36,10.0,Calm,Calm,-,N/A,,Clear,0,2012-12-12 12:15:00
7:35 AM,35.8,30.7,82,30.36,10.0,Calm,Calm,-,N/A,,Clear,0,2012-12-12 12:35:00
7:55 AM,36.3,31.1,81,30.37,10.0,WNW,3.5,-,N/A,,Clear,290,2012-12-12 12:55:00
8:15 AM,36.7,30.6,78,30.37,10.0,WNW,3.5,-,N/A,,Clear,290,2012-12-12 13:15:00
8:35 AM,38.3,30.7,74,30.38,10.0,WNW,3.5,-,N/A,,Clear,290,2012-12-12 13:35:00
8:55 AM,39.7,29.7,67,30.39,10.0,WNW,3.5,-,N/A,,Clear,300,2012-12-12 13:55:00
9:15 AM,41.2,28.6,61,30.39,10.0,NNW,3.5,-,N/A,,Clear,340,2012-12-12 14:15:00
9:35 AM,42.3,25.7,52,30.38,10.0,NNE,4.6,-,N/A,,Clear,30,2012-12-12 14:35:00
9:55 AM,43.2,25.2,49,30.39,10.0,NNE,4.6,-,N/A,,Clear,30,2012-12-12 14:55:00
10:15 AM,43.5,25.7,50,30.40,10.0,NW,5.8,-,N/A,,Clear,320,2012-12-12 15:15:00
10:35 AM,44.4,25.5,48,30.40,10.0,NNW,5.8,-,N/A,,Clear,330,2012-12-12 15:35:00
10:55 AM,44.6,25.2,46,30.40,10.0,WNW,5.8,-,N/A,,Clear,290,2012-12-12 15:55:00
11:15 AM,44.6,23.0,43,30.40,10.0,NW,5.8,-,N/A,,Clear,320,2012-12-12 16:15:00
11:55 AM,45.0,25.0,46,30.39,10.0,NW,6.9,-,N/A,,Clear,320,2012-12-12 16:55:00
12:15 PM,44.8,24.6,45,30.39,10.0,North,5.8,-,N/A,,Clear,360,2012-12-12 17:15:00
12:35 PM,45.1,25.9,47,30.38,10.0,North,3.5,-,N/A,,Clear,350,2012-12-12 17:35:00
12:55 PM,45.0,26.1,48,30.37,10.0,NNW,5.8,-,N/A,,Clear,330,2012-12-12 17:55:00
1:15 PM,45.1,24.4,44,30.37,10.0,NW,4.6,-,N/A,,Clear,320,2012-12-12 18:15:00
1:55 PM,44.8,24.8,46,30.37,10.0,NW,5.8,-,N/A,,Clear,310,2012-12-12 18:55:00
2:15 PM,44.8,24.4,45,30.38,10.0,NW,4.6,-,N/A,,Clear,320,2012-12-12 19:15:00
2:35 PM,44.8,24.3,45,30.38,10.0,NNW,4.6,-,N/A,,Clear,330,2012-12-12 19:35:00
2:55 PM,44.4,24.6,46,30.39,10.0,NW,4.6,-,N/A,,Clear,310,2012-12-12 19:55:00
3:15 PM,44.6,25.3,47,30.38,10.0,WNW,3.5,-,N/A,,Clear,300,2012-12-12 20:15:00
3:35 PM,44.4,25.3,47,30.38,10.0,WNW,5.8,-,N/A,,Clear,300,2012-12-12 20:35:00
3:55 PM,44.1,25.5,48,30.39,10.0,WNW,4.6,-,N/A,,Clear,300,2012-12-12 20:55:00
4:15 PM,43.9,25.7,49,30.38,10.0,NW,4.6,-,N/A,,Clear,310,2012-12-12 21:15:00
4:35 PM,43.3,26.1,51,30.39,10.0,WNW,5.8,-,N/A,,Clear,300,2012-12-12 21:35:00
4:55 PM,42.8,26.2,52,30.39,10.0,WNW,3.5,-,N/A,,Clear,300,2012-12-12 21:55:00
5:15 PM,42.4,26.2,53,30.40,10.0,NW,3.5,-,N/A,,Clear,310,2012-12-12 22:15:00
5:35 PM,42.4,26.6,54,30.41,10.0,WNW,3.5,-,N/A,,Clear,290,2012-12-12 22:35:00
5:55 PM,42.1,26.8,55,30.41,10.0,NW,3.5,-,N/A,,Clear,310,2012-12-12 22:55:00
6:15 PM,42.4,26.6,54,30.40,10.0,NW,4.6,-,N/A,,Clear,320,2012-12-12 23:15:00
6:35 PM,41.9,26.6,55,30.41,10.0,NW,4.6,-,N/A,,Clear,320,2012-12-12 23:35:00
6:55 PM,41.9,27.0,55,30.39,10.0,Calm,Calm,-,N/A,,Clear,0,2012-12-12 23:55:00
7:15 PM,41.9,26.6,55,30.39,10.0,Calm,Calm,-,N/A,,Clear,0,2012-12-13 00:15:00
7:55 PM,41.5,26.8,56,30.41,10.0,NNW,3.5,-,N/A,,Clear,340,2012-12-13 00:55:00
8:15 PM,41.2,26.8,57,30.42,10.0,NNW,3.5,-,N/A,,Clear,340,2012-12-13 01:15:00
8:55 PM,40.8,27.3,59,30.44,10.0,Calm,Calm,-,N/A,,Clear,0,2012-12-13 01:55:00
9:15 PM,40.5,27.3,59,30.44,10.0,Calm,Calm,-,N/A,,Clear,0,2012-12-13 02:15:00
9:55 PM,40.1,27.1,60,30.44,10.0,NW,3.5,-,N/A,,Clear,320,2012-12-13 02:55:00
10:15 PM,40.1,27.1,60,30.43,10.0,Calm,Calm,-,N/A,,Clear,0,2012-12-13 03:15:00
10:35 PM,40.1,27.1,60,30.43,10.0,NNW,3.5,-,N/A,,Clear,330,2012-12-13 03:35:00
10:55 PM,39.4,27.1,62,30.44,10.0,NW,3.5,-,N/A,,Clear,310,2012-12-13 03:55:00
11:15 PM,39.2,27.5,63,30.45,10.0,NW,4.6,-,N/A,,Clear,310,2012-12-13 04:15:00
11:55 PM,39.2,27.1,62,30.44,10.0,NNW,3.5,-,N/A,,Clear,330,2012-12-13 04:55:00